TimeCDT,TemperatureF,Dew PointF,Humidity,Sea Level PressureIn,VisibilityMPH,Wind Direction,Wind SpeedMPH,Gust SpeedMPH,PrecipitationIn,Events,Conditions,WindDirDegrees,DateUTC
12:15 AM,30.6,23.4,75,30.35,10.0,Calm,Calm,-,N/A,,Scattered Clouds,0,2013-03-28 05:15:00
12:35 AM,28.4,22.5,78,30.35,10.0,Calm,Calm,-,N/A,,Scattered Clouds,0,2013-03-28 05:35:00
12:55 AM,28.8,22.5,77,30.35,10.0,SSE,3.5,-,N/A,,Clear,150,2013-03-28 05:55:00
1:15 AM,28.0,23.2,82,30.35,10.0,Calm,Calm,-,N/A,,Clear,0,2013-03-28 06:15:00
1:35 AM,26.6,21.7,82,30.35,10.0,Calm,Calm,-,N/A,,Clear,0,2013-03-28 06:35:00
1:55 AM,27.5,23.0,83,30.35,10.0,Calm,Calm,-,N/A,,Mostly Cloudy,0,2013-03-28 06:55:00
2:35 AM,27.3,22.8,83,30.35,10.0,Calm,Calm,-,N/A,,Mostly Cloudy,0,2013-03-28 07:35:00
2:55 AM,27.1,22.6,83,30.35,10.0,Calm,Calm,-,N/A,,Mostly Cloudy,0,2013-03-28 07:55:00
3:15 AM,27.0,22.6,84,30.35,10.0,Calm,Calm,-,N/A,,Scattered Clouds,0,2013-03-28 08:15:00
3:35 AM,25.7,22.6,88,30.35,10.0,Calm,Calm,-,N/A,,Clear,0,2013-03-28 08:35:00
3:55 AM,26.6,23.0,86,30.35,10.0,ENE,3.5,-,N/A,,Clear,70,2013-03-28 08:55:00
4:15 AM,24.6,21.2,87,30.35,10.0,Calm,Calm,-,N/A,,Clear,0,2013-03-28 09:15:00
4:35 AM,23.7,20.8,89,30.35,7.0,Calm,Calm,-,N/A,,Clear,0,2013-03-28 09:35:00
4:55 AM,24.8,21.7,88,30.35,10.0,ENE,4.6,-,N/A,,Clear,60,2013-03-28 09:55:00
5:15 AM,23.9,20.5,87,30.35,10.0,Calm,Calm,-,N/A,,Clear,0,2013-03-28 10:15:00
5:35 AM,23.7,20.1,86,30.35,10.0,ESE,3.5,-,N/A,,Clear,120,2013-03-28 10:35:00
5:55 AM,23.5,20.3,87,30.35,10.0,East,3.5,-,N/A,,Clear,90,2013-03-28 10:55:00
6:15 AM,23.2,20.3,89,30.35,10.0,East,4.6,-,N/A,,Clear,80,2013-03-28 11:15:00
6:35 AM,23.9,20.3,86,30.36,10.0,East,4.6,-,N/A,,Clear,90,2013-03-28 11:35:00
6:55 AM,23.4,20.1,87,30.37,7.0,East,5.8,-,N/A,,Clear,80,2013-03-28 11:55:00
7:15 AM,23.5,19.9,86,30.37,7.0,East,5.8,-,N/A,,Clear,90,2013-03-28 12:15:00
7:35 AM,24.6,20.3,84,30.37,7.0,East,5.8,-,N/A,,Clear,100,2013-03-28 12:35:00
7:55 AM,26.1,21.7,84,30.38,7.0,ESE,4.6,-,N/A,,Clear,110,2013-03-28 12:55:00
8:15 AM,27.7,23.0,83,30.38,10.0,ESE,3.5,-,N/A,,Clear,110,2013-03-28 13:15:00
8:35 AM,30.7,24.3,77,30.38,10.0,ESE,3.5,-,N/A,,Clear,120,2013-03-28 13:35:00
8:55 AM,33.3,24.4,70,30.38,10.0,ESE,5.8,-,N/A,,Clear,120,2013-03-28 13:55:00
9:15 AM,34.7,24.8,67,30.38,10.0,ESE,8.1,-,N/A,,Clear,120,2013-03-28 14:15:00
9:35 AM,36.3,24.3,62,30.38,10.0,SE,10.4,-,N/A,,Clear,130,2013-03-28 14:35:00
9:55 AM,37.4,24.6,60,30.38,10.0,ESE,9.2,-,N/A,,Clear,110,2013-03-28 14:55:00
10:15 AM,38.7,25.3,59,30.38,10.0,East,6.9,-,N/A,,Clear,100,2013-03-28 15:15:00
10:35 AM,39.7,27.1,61,30.38,10.0,ESE,6.9,-,N/A,,Clear,110,2013-03-28 15:35:00
10:55 AM,40.3,24.6,54,30.39,10.0,SE,9.2,-,N/A,,Clear,130,2013-03-28 15:55:00
11:15 AM,40.1,24.4,54,30.38,10.0,ESE,9.2,-,N/A,,Clear,110,2013-03-28 16:15:00
11:35 AM,41.0,26.2,56,30.38,10.0,ESE,8.1,-,N/A,,Clear,110,2013-03-28 16:35:00
11:55 AM,41.5,25.7,53,30.38,10.0,SE,8.1,-,N/A,,Clear,140,2013-03-28 16:55:00
12:15 PM,42.1,25.9,53,30.38,10.0,SE,9.2,-,N/A,,Clear,140,2013-03-28 17:15:00
12:35 PM,42.8,28.4,57,30.37,10.0,East,9.2,-,N/A,,Clear,100,2013-03-28 17:35:00
12:55 PM,43.3,26.8,52,30.36,10.0,ESE,10.4,-,N/A,,Clear,120,2013-03-28 17:55:00
1:15 PM,43.9,27.3,52,30.36,10.0,East,10.4,-,N/A,,Clear,100,2013-03-28 18:15:00
1:35 PM,43.9,27.9,53,30.35,10.0,ESE,10.4,-,N/A,,Clear,110,2013-03-28 18:35:00
1:55 PM,44.4,28.4,53,30.35,10.0,East,9.2,-,N/A,,Clear,100,2013-03-28 18:55:00
2:15 PM,44.6,28.4,53,30.34,10.0,East,9.2,-,N/A,,Clear,100,2013-03-28 19:15:00
2:35 PM,44.8,28.8,53,30.33,10.0,ESE,8.1,-,N/A,,Clear,120,2013-03-28 19:35:00
2:55 PM,45.5,29.5,54,30.33,10.0,East,8.1,-,N/A,,Clear,100,2013-03-28 19:55:00
3:15 PM,45.5,30.2,55,30.32,10.0,ESE,8.1,-,N/A,,Clear,110,2013-03-28 20:15:00
3:35 PM,45.5,30.0,55,30.32,10.0,ESE,8.1,-,N/A,,Clear,120,2013-03-28 20:35:00
3:55 PM,45.9,30.9,56,30.31,10.0,East,6.9,-,N/A,,Clear,100,2013-03-28 20:55:00
4:15 PM,46.0,31.1,56,30.30,10.0,ESE,8.1,-,N/A,,Clear,120,2013-03-28 21:15:00
4:35 PM,46.6,34.7,63,30.30,10.0,East,9.2,-,N/A,,Clear,90,2013-03-28 21:35:00
4:55 PM,46.2,34.0,62,30.29,10.0,East,9.2,-,N/A,,Clear,80,2013-03-28 21:55:00
5:15 PM,46.4,34.0,62,30.29,10.0,East,9.2,-,N/A,,Scattered Clouds,90,2013-03-28 22:15:00
5:35 PM,46.4,34.5,63,30.29,10.0,East,8.1,-,N/A,,Scattered Clouds,90,2013-03-28 22:35:00
5:55 PM,45.5,35.1,67,30.28,10.0,East,9.2,-,N/A,,Clear,80,2013-03-28 22:55:00
6:15 PM,45.5,36.0,69,30.29,10.0,East,5.8,-,N/A,,Clear,90,2013-03-28 23:15:00
6:35 PM,44.4,36.5,74,30.29,10.0,East,5.8,-,N/A,,Clear,90,2013-03-28 23:35:00
6:55 PM,42.4,35.8,77,30.29,10.0,East,6.9,-,N/A,,Clear,80,2013-03-28 23:55:00
7:15 PM,40.8,35.6,82,30.29,10.0,East,5.8,-,N/A,,Clear,90,2013-03-29 00:15:00
7:35 PM,40.3,35.8,84,30.29,10.0,East,4.6,-,N/A,,Clear,100,2013-03-29 00:35:00
7:55 PM,39.0,34.3,83,30.29,10.0,ENE,5.8,-,N/A,,Clear,70,2013-03-29 00:55:00
8:15 PM,38.7,33.8,83,30.29,10.0,East,6.9,-,N/A,,Scattered Clouds,80,2013-03-29 01:15:00
8:35 PM,37.4,32.5,83,30.29,10.0,East,8.1,-,N/A,,Clear,80,2013-03-29 01:35:00
8:55 PM,36.5,32.2,84,30.29,10.0,East,9.2,-,N/A,,Clear,80,2013-03-29 01:55:00
9:15 PM,37.4,32.4,82,30.29,10.0,ENE,9.2,-,N/A,,Clear,70,2013-03-29 02:15:00
9:35 PM,36.5,32.0,84,30.29,10.0,East,8.1,-,N/A,,Scattered Clouds,80,2013-03-29 02:35:00
9:55 PM,36.5,32.0,84,30.29,10.0,East,6.9,-,N/A,,Mostly Cloudy,90,2013-03-29 02:55:00
10:15 PM,36.0,32.0,86,30.29,10.0,East,9.2,-,N/A,,Scattered Clouds,90,2013-03-29 03:15:00
10:35 PM,36.0,31.1,82,30.29,10.0,East,9.2,-,N/A,,Clear,90,2013-03-29 03:35:00
10:55 PM,35.6,31.1,84,30.29,10.0,East,8.1,-,N/A,,Clear,90,2013-03-29 03:55:00
11:15 PM,35.6,31.6,85,30.29,10.0,East,6.9,-,N/A,,Mostly Cloudy,90,2013-03-29 04:15:00
11:35 PM,35.6,32.0,87,30.29,10.0,East,5.8,-,N/A,,Overcast,90,2013-03-29 04:35:00
11:55 PM,35.6,32.0,87,30.29,10.0,ENE,6.9,-,N/A,,Mostly Cloudy,70,2013-03-29 04:55:00